Regional Weather Roundup
Issued by NWS

Home | Current Version | Previous Version | Graphics & Text | Print | Product List | Glossary On
Versions: 1 2 3 4 5 6 7 8 9 10 11 12 13 14 15 16 17 18 19 20 21 22 23 24 25 26 27 28 29 30 31 32 33 34 35 36 37 38 39 40 41 42 43 44 45 46 47 48 49 50
000
ASUS43 KBIS 191602
RWRND

NORTH DAKOTA REGIONAL WEATHER ROUNDUP
NATIONAL WEATHER SERVICE BISMARCK ND
1000 AM CST SUN FEB 19 2017

NOTE: "FAIR" INDICATES FEW OR NO CLOUDS BELOW 12,000 FEET WITH NO
SIGNIFICANT WEATHER AND/OR OBSTRUCTIONS TO VISIBILITY.


NDZ001>003-009>011-017-191700-
NORTHWEST NORTH DAKOTA

CITY           SKY/WX    TMP DP  RH WIND       PRES   REMARKS
WILLISTON      CLOUDY    34  30  85 E8        29.54F FOG
MINOT          CLOUDY    35  33  92 E9        29.60F
$$

NDZ018>021-031>035-040>046-191700-
SOUTHWEST NORTH DAKOTA

CITY           SKY/WX    TMP DP  RH WIND       PRES   REMARKS
BISMARCK       FAIR      37  33  85 NE5       29.58F
DICKINSON      CLOUDY    31  31 100 E9        29.49F FOG
GARRISON       NOT AVBL
HETTINGER ARPT CLOUDY    38  32  79 CALM      29.53F
$$

NDZ004>008-012>016-024-026-027-054-191700-
NORTHEAST NORTH DAKOTA

CITY           SKY/WX    TMP DP  RH WIND       PRES   REMARKS
GRAND FORKS    CLOUDY    39  31  72 SE15      29.75F
GRND FRKS AFB  CLOUDY    37  34  89 S7        29.75F
DEVILS LAKE    PTSUNNY   36  33  89 E17       29.68F
$$

NDZ022-023-025-028>030-036>039-047>053-191700-
SOUTHEAST NORTH DAKOTA

CITY           SKY/WX    TMP DP  RH WIND       PRES   REMARKS
FARGO          CLOUDY    46  39  76 SE15      29.75F
JAMESTOWN      PTSUNNY   38  34  85 SE12      29.66F
$$





USA.gov is the U.S. government's official web portal to all federal, state and local government web resources and services.